Showing default

PISAT, 41784

Orbit data source: Space-Track

PISAT, 41784 is a payload satellite owned by PES Univ. (IN) in SSO that was launched on Mon, 26 Sep 2016 UTC via a PSLV launch vehicle from the Sirharikota (SRI). Payloads include a variety of satellites, spacecraft, and rockets equipped with specific instruments for various scientific and technological missions. These include communications satellites like Starlink; space stations such as the ISS; scientific satellites like the Hubble; Earth observation satellites from companies like Planet Labs, Umbra, and HawkEye 360; GPS; miniature CubeSats for education and research; and military/defense satellites.

Loading next visibility...
PISAT details
Identifier
41784, 2016-059B
Orbit
SSO
Last TLE update10 hours ago
Origin
Flag of INPES Univ. (IN / IND)
ManufacturerPES Univ.
MissionOperational Amateur Imaging
Bus & MotorPISAT, Unknown motor
Mass5.25 kg wet, 5.25 kg dry
Launch date (UTC)
2016-09-26 (8 years ago)
Launch vehicle
PSLV
Launch site
Sirharikota (SRI)
Object type
Payload
Rocket body
Debris
Shape & HBRBox, 0.256 m
Radar Cross Section0.079 m², Medium (>0.1 m² and < 1m²)

Expand to show TLE details & history

TLE from 10 hours ago
0 PISAT
1 41784U 16059B   24361.49538135  .00003101  00000-0  55577-3 0  9996
2 41784  97.8237  14.7654 0031208 120.3157 240.1141 14.67143035440849
Epoch: 2024-12-26T11:53Z
Definitive object data (Epoch: 2024-12-26T11:53:20.948Z)
Latitude-0.00009°
Longitude100.95417°
Altitude684.224 km
Speed7.509 km/s
True Right ascension00h 59m 03s
True Declination0° 00' 00"
Sunlit
Object was in daylight at TLE epoch
Visualization TLE readout
Latitude-18.89425°
Longitude104.02237°
Altitude693.802 km
Speed7.5 km/s
Apparent Right ascension04h 08m 53s
Apparent Declination-45° 33' 43"
Sunlit
Object is in daylight
Visualization observer readout
Local Sidereal Time21:00:25
Azimuth121.834° SE
Elevation-38.037°
Doppler factor1
Orbital elements
Apogee altitude689.245 km
Perigee altitude645.271 km
Semi-major axis7,045.395 km
Eccentricity0.0031208
Inclination97.8237°
RAAN14.7654°
Arg. of periapsis120.3157°
True anomaly239.80464°
Mean anomaly240.1141°
Eccentric anomaly239.95931°
Mean motion3.67016 °/min
BSTAR0.00055577
Orbital period98.09 mins
Loading maneuver chart data...
Loading historical data...
Loading historical data...
Loading historical data...
Loading historical data...
Loading historical data...
Loading historical data...
Loading historical data...

PISAT Visibility forecast

Observer location: undefined°, undefined

Span
Click to sort rows by Start time (UTC) header in descending order
Start Az.
Max El. time (UTC)
Max El. Az.
Max El.
End time (UTC)
End Az.
8 mins2024-12-27 01:06:24.512Z165.196° S2024-12-27 01:10:24.512Z355.838° N44.022°2024-12-27 01:14:24.512Z348.236° N
4 mins2024-12-27 13:03:24.512Z67.682° E2024-12-27 13:04:24.512Z84.987° E19.101°2024-12-27 13:07:24.512Z134.411° SE
6 mins2024-12-27 14:39:24.512Z343.626° N2024-12-27 14:42:24.512Z279.388° WNW29.113°2024-12-27 14:45:24.512Z229.117° WSW
|